Starlink 1550

decayed
NORAD ID: 46365 Int'l Des: 2020-062 Owner: SPXS Country: US Constellation: starlink
LEOCIRCULAR
Gruppe

Über Starlink 1550

Beschreibung wird geladen...

Höhenverlauf

Altitude vs Time

uPlot chart will show altitude changes over time

Zweizeiliger Elementsatz

1 46365U 20062AS 24086.95030299 .08992137 12367-4 90677-3 0 9995
2 46365 53.0312 218.4072 0008388 307.3143 155.7057 16.37125342198688
Epoch: 26. März 2024 • Age: 14069 hours

Aktueller Status

Position data unavailable
Startdatum 3. Sept. 2020
Alter 5.1 years
Verglühungsdatum 27. März 2024
Typ internet

Technische Details

Klassifizierung Payload
Masse 260.00 kg
Trockenmasse 248.00 kg
Gesamtmasse 260.00 kg
Länge 0.20 m
Durchmesser 2.80 m
Spannweite 9.00 m
Form Box + pan
Hersteller SPXS
Bus-Typ Starlink
Phasenstatus Unknown Transfer Status
Besitzer/Staat SPXS/US

Große Konstellationen

Loading constellations...